Wind_Speed
69 64 60 55 54 52 47 48 47 37 45 42 39 36 33 32 31 30 25 24 23 19 18 11 9 7 5 5 5 7 9 11 12 13 13 13 14 14
72 67 61 57 50 52 47 45 46 42 44 45 45 43 38 34 30 28 26 25 24 22 16 13 11 9 9 8 7 7 9 10 11 13 13 13 13 14
72 69 62 57 50 49 46 44 47 45 38 46 46 41 39 36 33 30 26 26 25 21 17 16 14 13 12 11 10 9 9 10 12 13 13 13 13 15
71 67 63 56 52 46 43 43 45 47 42 36 43 45 41 37 35 31 30 28 25 23 21 20 17 16 15 14 13 11 11 11 13 13 12 13 14 14
72 68 64 57 54 46 43 44 43 45 42 35 36 40 42 40 37 35 33 30 27 25 24 22 20 19 18 16 15 13 12 12 14 14 14 13 14 15
73 68 65 60 53 49 43 41 40 43 42 38 31 32 40 41 41 39 38 34 31 30 28 25 23 22 20 18 17 14 13 13 14 15 15 14 15 15
69 67 64 57 51 47 42 43 39 42 43 40 35 33 39 45 47 44 40 37 34 33 31 29 27 23 21 19 17 16 15 14 15 15 15 15 16 15
66 67 62 60 52 46 40 37 33 39 43 43 42 39 38 41 44 45 44 40 39 37 34 31 27 24 22 20 17 17 16 15 15 15 16 15 16 15
65 64 63 57 53 48 45 40 34 36 35 34 40 41 40 38 41 43 42 41 40 35 32 32 29 26 23 21 19 19 18 16 15 15 17 16 16 16
63 59 61 56 52 50 47 41 37 35 36 32 32 34 34 31 31 34 38 40 39 37 31 24 26 27 24 22 21 21 18 16 15 16 15 16 16 16
59 57 57 54 50 51 47 41 38 36 35 31 26 26 27 27 26 30 35 38 40 38 34 30 26 22 24 24 23 22 19 17 15 17 16 15 15 16
53 51 51 52 52 52 46 42 40 38 37 32 30 30 27 25 22 21 24 32 35 35 34 33 29 22 20 23 24 23 19 16 16 18 14 15 15 15
48 50 45 45 46 50 48 44 38 36 35 32 30 31 29 28 27 26 23 25 27 30 19 26 31 26 23 11 21 22 19 15 17 15 14 14 14 14
48 42 40 41 41 52 51 46 42 38 37 36 34 34 34 31 29 26 23 23 24 25 25 22 19 25 26 22 14 15 16 13 14 13 13 13 13 14
45 45 40 40 42 52 50 48 45 40 39 40 39 37 34 31 28 27 27 26 25 26 26 24 18 18 20 22 18 13 13 13 13 12 12 13 12 13
43 36 40 39 40 47 48 49 46 45 41 39 39 39 36 34 32 30 28 27 28 28 27 25 22 20 20 20 18 15 13 11 9 9 11 12 12 13
44 42 43 42 44 47 50 50 48 45 43 42 42 41 38 37 34 32 30 29 30 29 29 28 25 23 22 19 17 17 15 13 11 11 11 11 12 13
46 44 41 40 42 46 50 51 50 48 48 45 44 41 39 38 37 35 32 31 31 31 31 30 29 27 25 22 20 17 14 12 11 11 11 10 11 13
46 44 42 40 40 42 46 51 52 51 50 48 45 42 42 40 40 38 37 35 34 33 31 30 29 27 25 24 19 16 14 12 10 10 11 10 10 12
42 43 43 41 38 41 42 47 49 53 53 50 48 46 44 43 43 43 41 39 39 37 34 31 27 22 22 21 18 15 14 12 9 10 11 10 11 12
49 47 44 41 40 39 40 42 46 49 53 51 51 50 47 46 46 45 42 41 39 37 35 32 26 23 25 22 18 16 14 12 9 10 11 10 10 11
47 45 41 42 42 40 40 41 43 49 53 56 55 52 49 49 48 47 45 44 42 39 36 31 22 25 24 22 18 15 14 11 10 11 10 9 9 9
40 44 46 44 44 42 40 42 43 46 48 54 55 54 53 51 49 47 47 47 43 38 37 29 27 27 24 21 18 16 14 12 12 11 9 9 9 11
Wind_Direction
200 199 201 200 198 200 201 201 199 182 196 201 202 206 204 205 203 199 197 198 198 194 202 210 216 225 245 272 305 330 343 352 353 352 351 350 355 355
203 200 200 203 201 204 206 206 204 206 191 201 204 205 203 206 204 207 204 206 209 207 212 218 227 236 248 264 284 307 326 337 343 347 344 345 348 350
201 202 202 204 202 205 208 209 207 210 209 204 207 209 208 204 204 206 213 217 218 215 215 225 234 240 250 260 274 294 306 321 332 337 340 338 344 344
203 202 203 205 205 206 211 212 212 213 219 213 209 209 214 207 205 210 213 219 224 221 224 232 237 244 249 257 267 280 295 312 320 329 334 337 339 339
207 206 206 206 206 209 212 213 214 217 222 220 214 211 213 210 207 212 217 220 223 225 232 237 240 245 250 255 262 271 286 300 312 322 328 334 335 336
208 208 209 209 210 208 211 213 213 216 218 216 221 216 215 212 213 215 215 220 224 227 231 235 241 246 249 253 259 267 278 290 303 316 324 331 329 332
206 208 210 211 214 213 210 212 212 214 215 215 215 214 215 212 213 214 219 223 225 229 233 236 239 244 248 253 257 263 270 283 298 310 320 324 326 329
207 208 209 210 215 211 212 220 220 214 213 214 215 216 218 217 216 218 219 217 221 228 231 236 239 243 247 250 251 258 267 278 291 304 315 318 321 325
210 208 208 204 209 209 213 218 221 223 226 223 217 217 219 218 218 221 224 227 230 230 231 235 239 243 245 246 248 254 262 271 284 296 312 311 315 319
213 211 210 207 206 207 212 214 217 219 220 225 231 231 228 227 232 233 229 228 230 234 233 240 243 245 244 244 247 251 259 265 278 295 301 305 311 315
215 213 209 211 204 206 209 211 215 214 217 222 223 225 229 232 239 237 230 227 229 232 232 236 240 241 240 242 243 248 255 260 269 292 293 302 305 313
210 210 214 213 205 207 205 210 211 212 213 210 209 211 214 222 227 232 236 234 228 231 233 231 237 236 238 241 239 242 247 255 273 288 290 295 301 307
202 203 206 214 208 207 206 209 211 210 209 211 208 209 211 216 217 221 222 226 232 234 237 232 237 233 227 237 233 233 238 249 283 278 284 290 297 305
195 198 198 207 205 206 208 209 212 210 210 207 207 210 214 217 218 221 224 225 221 227 235 240 242 236 230 228 228 226 230 262 277 274 280 288 295 303
200 199 208 205 205 204 208 212 215 210 213 212 212 215 220 221 220 220 219 220 218 221 225 226 232 235 228 230 234 238 238 283 272 267 274 282 289 299
206 207 209 206 208 199 207 212 215 215 213 216 219 221 223 221 220 223 223 221 220 220 222 218 217 223 223 220 229 239 258 269 269 264 270 278 288 300
205 213 213 204 205 204 206 212 213 217 217 218 222 224 222 223 221 222 223 224 225 225 221 214 212 214 214 223 230 236 265 264 253 262 268 275 289 305
205 212 211 210 211 211 207 210 213 215 217 218 221 225 225 224 223 222 224 227 227 225 221 219 215 211 212 218 228 250 256 246 247 259 266 274 289 304
209 211 217 213 215 215 213 213 214 215 218 217 220 223 224 224 224 224 225 225 223 223 218 216 215 215 216 219 233 246 241 232 238 254 263 274 293 304
220 219 220 219 218 218 217 217 216 215 219 218 219 222 224 223 224 224 224 225 222 218 212 209 210 214 224 232 245 243 229 224 219 247 261 274 290 303
216 219 223 224 227 223 221 219 218 217 220 221 222 222 224 224 224 226 228 228 226 219 212 205 205 221 224 235 231 223 217 205 207 240 256 273 290 305
220 222 225 228 228 229 230 229 226 221 221 222 224 225 226 226 225 227 227 227 223 216 209 204 217 229 224 231 227 218 210 198 210 239 254 273 296 304
226 230 232 233 234 232 232 230 231 229 230 227 225 226 227 226 227 227 228 226 220 209 203 202 225 220 219 219 217 210 199 191 218 236 253 278 300 312
Height
1486 1496 1506 1513 1520 1526 1533 1537 1539 1555 1565 1569 1575 1579 1583 1586 1590 1595 1599 1602 1603 1605 1605 1606 1608 1608 1609 1608 1608 1607 1606 1605 1603 1601 1599 1597 1595 1593
1478 1490 1498 1508 1516 1522 1530 1536 1540 1545 1553 1561 1566 1569 1577 1582 1587 1592 1596 1599 1600 1601 1603 1605 1606 1607 1607 1607 1606 1606 1606 1604 1603 1601 1598 1596 1594 1592
1471 1481 1493 1501 1510 1517 1526 1533 1537 1542 1547 1554 1561 1568 1573 1578 1583 1588 1592 1595 1597 1599 1601 1603 1604 1605 1605 1605 1605 1606 1605 1603 1602 1599 1597 1595 1593 1592
1464 1474 1487 1497 1506 1513 1522 1528 1533 1538 1543 1550 1556 1562 1568 1574 1580 1584 1588 1591 1594 1596 1598 1600 1602 1602 1603 1603 1603 1604 1604 1603 1601 1599 1596 1594 1592 1590
1459 1468 1481 1491 1500 1508 1517 1523 1528 1534 1541 1547 1552 1557 1563 1569 1574 1579 1583 1586 1589 1592 1594 1596 1598 1599 1599 1600 1601 1602 1602 1601 1600 1598 1595 1593 1591 1588
1453 1464 1474 1484 1494 1503 1511 1516 1522 1528 1536 1541 1548 1553 1558 1564 1569 1572 1576 1580 1583 1586 1589 1592 1594 1595 1596 1597 1599 1600 1600 1598 1597 1596 1594 1591 1589 1586
1448 1459 1469 1481 1490 1499 1505 1511 1515 1522 1529 1535 1541 1545 1550 1554 1557 1564 1570 1574 1578 1580 1584 1586 1588 1590 1592 1594 1595 1596 1597 1597 1596 1594 1592 1589 1587 1584
1442 1452 1464 1477 1485 1494 1502 1507 1511 1514 1521 1527 1531 1536 1541 1547 1554 1557 1562 1568 1571 1573 1578 1582 1585 1586 1588 1589 1591 1592 1593 1593 1592 1591 1589 1587 1585 1582
1437 1444 1457 1467 1478 1488 1496 1503 1508 1513 1520 1522 1525 1530 1535 1538 1547 1553 1556 1561 1563 1567 1573 1576 1579 1582 1585 1586 1587 1587 1589 1590 1589 1588 1587 1585 1582 1579
1433 1440 1451 1460 1470 1480 1489 1496 1502 1508 1515 1521 1525 1529 1535 1540 1544 1548 1552 1556 1561 1564 1568 1571 1575 1577 1580 1582 1583 1583 1585 1586 1586 1585 1584 1582 1580 1578
1426 1435 1446 1455 1464 1474 1483 1490 1498 1503 1510 1516 1522 1528 1533 1537 1541 1544 1546 1551 1554 1557 1561 1565 1568 1571 1574 1577 1578 1579 1581 1582 1582 1581 1580 1578 1576 1575
1422 1429 1440 1449 1457 1467 1477 1485 1491 1498 1504 1511 1516 1521 1526 1530 1534 1538 1543 1545 1550 1553 1556 1560 1563 1567 1569 1570 1572 1574 1576 1577 1578 1577 1576 1574 1573 1572
1414 1423 1433 1441 1452 1462 1472 1480 1486 1494 1501 1508 1512 1517 1520 1524 1528 1532 1537 1541 1545 1549 1552 1555 1557 1561 1563 1564 1566 1569 1572 1573 1574 1573 1571 1571 1570 1569
1409 1419 1427 1437 1446 1457 1467 1474 1482 1490 1496 1502 1506 1510 1514 1518 1523 1528 1533 1536 1540 1544 1548 1550 1553 1556 1557 1560 1563 1566 1569 1570 1569 1569 1568 1568 1567 1565
1408 1415 1424 1432 1440 1451 1462 1468 1476 1483 1491 1496 1501 1505 1510 1514 1519 1523 1527 1531 1535 1538 1540 1544 1548 1552 1555 1557 1560 1562 1565 1566 1566 1566 1565 1564 1563 1562
1407 1412 1421 1428 1434 1444 1454 1460 1468 1477 1484 1491 1497 1500 1504 1509 1512 1517 1522 1525 1529 1532 1535 1539 1542 1547 1551 1553 1556 1559 1561 1562 1562 1562 1562 1561 1560 1558
1399 1407 1415 1422 1427 1433 1443 1452 1461 1470 1478 1484 1488 1493 1497 1502 1507 1512 1517 1520 1523 1526 1529 1533 1536 1541 1546 1549 1551 1554 1555 1556 1557 1558 1558 1557 1556 1555
1394 1402 1408 1416 1421 1428 1436 1445 1453 1462 1469 1474 1480 1486 1491 1496 1501 1505 1510 1513 1517 1520 1522 1528 1531 1535 1539 1544 1547 1548 1550 1552 1554 1555 1555 1554 1553 1553
1389 1398 1405 1410 1416 1423 1430 1437 1446 1454 1461 1466 1472 1478 1484 1488 1494 1498 1503 1506 1510 1515 1518 1522 1526 1530 1534 1537 1542 1544 1546 1548 1549 1551 1551 1551 1550 1549
1386 1392 1399 1406 1411 1418 1424 1431 1439 1445 1453 1458 1464 1469 1475 1480 1484 1490 1494 1498 1502 1507 1512 1517 1522 1526 1531 1535 1537 1539 1541 1543 1545 1547 1549 1548 1546 1545
1377 1383 1392 1398 1405 1412 1419 1424 1430 1437 1444 1449 1455 1460 1466 1471 1476 1482 1487 1491 1496 1503 1508 1512 1517 1521 1525 1530 1532 1534 1537 1539 1542 1545 1545 1545 1544 1544
1371 1378 1385 1393 1400 1406 1412 1418 1423 1427 1433 1439 1445 1452 1457 1462 1466 1472 1477 1482 1488 1495 1503 1509 1511 1514 1519 1524 1527 1530 1532 1535 1539 1540 1541 1543 1542 1540
1366 1372 1381 1387 1393 1400 1404 1409 1415 1420 1425 1431 1436 1442 1446 1452 1457 1462 1468 1473 1480 1489 1496 1501 1506 1510 1515 1519 1523 1526 1528 1532 1535 1536 1537 1538 1537 1536